This is the latest recevied weather packets stored in our database for station/object OE9GTV. If no packets are shown the sender has not sent any weather packets the latest 1 day(s).
| Time | Temp. | Humidity | Pressure | Rain* | Wind** | Luminosity | Snow |
|---|---|---|---|---|---|---|---|
| 1777996271 | 18.89° C | 61% | 1004.2 hPa | 0 mm | 2.24 m/s, 32° | 0 W/m² | - |
| 1777995671 | 18.89° C | 60% | 1004.1 hPa | 0 mm | 3.13 m/s, 10° | 0 W/m² | - |
| 1777995071 | 19.44° C | 61% | 1004 hPa | 0 mm | 2.24 m/s, 61° | 0 W/m² | - |
| 1777994471 | 19.44° C | 61% | 1004 hPa | 0 mm | 2.68 m/s, 54° | 0 W/m² | - |
| 1777993871 | 19.44° C | 58% | 1004.1 hPa | 0 mm | 3.13 m/s, 25° | 0 W/m² | - |
| 1777993271 | 20° C | 60% | 1003.9 hPa | 0 mm | 1.79 m/s, 38° | 0 W/m² | - |
| 1777992671 | 19.44° C | 61% | 1003.9 hPa | 0 mm | 2.68 m/s, 46° | 0 W/m² | - |
| 1777992071 | 20° C | 61% | 1004 hPa | 0 mm | 2.24 m/s, 59° | 0 W/m² | - |
| 1777991471 | 19.44° C | 63% | 1004 hPa | 0 mm | 1.79 m/s, 43° | 0 W/m² | - |
| 1777990871 | 18.89° C | 65% | 1004 hPa | 0 mm | 2.24 m/s, 42° | 0 W/m² | - |
| 1777990271 | 18.33° C | 68% | 1004.1 hPa | 0 mm | 3.13 m/s, 31° | 0 W/m² | - |
| 1777989671 | 17.78° C | 67% | 1004.1 hPa | 0 mm | 2.68 m/s, 71° | 0 W/m² | - |
| 1777989071 | 17.78° C | 67% | 1004.1 hPa | 0 mm | 2.68 m/s, 57° | 0 W/m² | - |
| 1777988470 | 18.33° C | 66% | 1004.1 hPa | 0 mm | 2.24 m/s, 48° | 0 W/m² | - |
| 1777987870 | 18.33° C | 65% | 1004.1 hPa | 0 mm | 2.68 m/s, 42° | 0 W/m² | - |
| 1777987270 | 18.89° C | 66% | 1004.2 hPa | 0 mm | 2.24 m/s, 58° | 0 W/m² | - |
| 1777986670 | 18.89° C | 66% | 1004.3 hPa | 0 mm | 1.79 m/s, 44° | 0 W/m² | - |
| 1777986076 | 19.44° C | 65% | 1004.4 hPa | 0 mm | 1.79 m/s, 44° | 0 W/m² | - |
| 1777985475 | 18.89° C | 67% | 1004.3 hPa | 0 mm | 0.89 m/s, 29° | 0 W/m² | - |
| 1777984875 | 17.78° C | 67% | 1004.5 hPa | 0 mm | 1.34 m/s, 331° | 0 W/m² | - |
| 1777984275 | 17.78° C | 69% | 1004.6 hPa | 0 mm | 0.89 m/s, 324° | 0 W/m² | - |
| 1777983675 | 17.22° C | 67% | 1004.8 hPa | 0 mm | 0.45 m/s, 21° | 0 W/m² | - |
| 1777983075 | 17.22° C | 68% | 1004.9 hPa | 0 mm | 1.34 m/s, 19° | 0 W/m² | - |
| 1777982475 | 16.67° C | 68% | 1005 hPa | 0 mm | 0.89 m/s, 43° | 0 W/m² | - |
| 1777981875 | 16.67° C | 70% | 1005.1 hPa | 0 mm | 1.34 m/s, 43° | 0 W/m² | - |
* Rain latest hour (hover to see other rain measurements)
** Current wind speed in m/s (hover to see current wind gust speed)